RH
63 67 68 68 68 70 71 72 74 76 82 77 68 65 59 56 57 59 60 60 62 60 61 60 59 59 62 66 68 71 70 73 75 75 76 73 74 76 75 73 72 72 71 69 69 70 68 67 67 68 65 60 55 50 45 39 34 32 32 33 36 37 37 36 35 35 35 35 35 34 33 32 31 30 30 32 34 35 36 37 39 38 37 36 36 38 41 41 42 40 39 37 36 32 24 23 26
67 71 72 71 70 72 75 75 76 78 84 78 66 63 59 57 58 59 59 60 62 62 61 58 59 60 62 65 65 69 70 73 74 73 73 72 75 76 75 74 71 70 70 70 70 68 68 67 66 67 65 58 54 50 46 42 38 34 32 32 34 37 37 36 36 36 36 36 36 36 34 33 32 31 31 33 35 36 37 39 39 38 36 36 37 40 41 42 42 41 39 37 36 30 23 25 28
70 73 73 74 73 73 75 78 78 75 79 79 69 62 60 60 57 54 55 58 60 61 60 57 60 61 62 65 64 68 71 74 75 73 72 74 76 75 76 75 72 71 70 70 71 69 68 68 66 67 65 61 57 52 48 45 41 37 34 32 33 36 37 37 37 38 37 36 37 36 35 34 34 32 32 35 36 37 38 38 38 37 36 36 38 41 42 42 42 42 40 37 36 28 22 26 29
69 72 73 72 74 73 73 76 76 74 73 75 70 62 59 58 55 52 53 56 57 57 56 57 60 62 63 66 65 66 71 74 75 72 71 73 72 73 75 74 74 74 71 71 71 70 69 70 69 67 67 66 62 59 55 51 47 43 39 35 34 35 37 38 39 39 38 37 37 37 35 34 35 33 33 35 36 37 37 37 37 36 36 37 39 42 42 43 43 42 40 38 36 25 22 27 29
67 72 73 72 74 74 75 76 75 75 71 71 69 59 55 55 54 51 52 53 55 56 56 59 59 59 62 66 67 66 69 73 73 71 70 71 70 74 75 73 75 73 71 72 72 71 70 70 69 68 68 67 66 64 60 59 56 49 45 40 38 38 39 42 43 43 42 41 39 39 36 34 34 33 33 35 35 35 36 36 37 38 38 39 41 42 42 44 44 43 40 39 36 24 22 27 28
68 71 73 72 74 72 75 80 77 73 66 66 65 57 53 53 51 50 53 55 56 60 59 60 58 58 60 65 70 69 69 71 71 71 70 69 71 75 75 73 73 72 71 71 72 71 71 70 69 69 69 69 68 65 62 63 61 53 48 45 44 43 42 43 45 45 45 44 42 41 39 36 34 34 34 34 35 35 36 37 39 42 42 43 44 43 42 45 45 43 40 40 35 23 22 26 26
69 70 72 72 74 72 74 80 77 71 61 62 60 53 51 49 50 50 53 57 57 59 59 58 57 59 62 66 74 72 68 67 68 69 69 69 71 73 73 73 72 71 71 71 72 72 71 70 69 71 72 70 69 66 64 64 62 55 50 48 47 47 45 44 45 44 45 45 45 43 42 40 37 36 35 35 34 35 37 38 41 44 44 44 46 46 45 45 46 43 40 41 34 22 22 25 24
69 69 72 76 76 75 78 77 73 70 61 59 56 50 50 49 51 51 53 57 58 58 58 56 56 59 63 67 75 74 67 67 68 68 69 70 70 70 73 74 71 70 70 71 71 72 71 70 71 72 73 72 70 68 65 64 61 56 53 52 51 50 50 49 49 48 47 46 46 45 44 44 41 39 38 36 35 36 37 37 40 43 43 44 46 48 48 47 47 44 40 41 33 21 22 25 24
72 71 72 76 78 77 78 75 69 67 61 55 52 50 51 51 52 53 54 58 60 62 59 57 58 60 64 67 73 74 68 68 68 68 69 68 68 70 72 72 70 70 71 72 72 73 72 71 71 72 73 73 72 71 68 64 62 60 58 57 55 53 53 53 54 53 51 50 49 47 46 46 45 43 41 40 39 39 40 39 39 40 41 43 45 47 51 50 48 45 41 41 33 21 23 25 24
71 71 73 75 77 79 78 76 71 65 58 53 52 52 51 52 53 54 57 61 63 63 59 56 56 58 64 67 69 71 68 66 66 68 69 68 67 69 72 72 70 71 72 72 73 74 72 72 72 72 74 75 75 73 69 65 63 63 64 63 59 56 55 55 55 56 56 54 52 49 48 48 47 46 44 42 41 41 42 41 40 41 42 44 46 46 50 52 50 45 42 42 31 21 23 24 24
69 71 76 78 79 81 81 79 75 64 55 53 54 53 52 52 53 54 57 61 62 59 58 59 59 58 61 65 67 68 65 63 64 66 68 70 70 68 71 73 72 71 70 70 71 73 73 73 73 72 74 75 75 73 70 68 66 66 66 65 62 60 58 58 58 59 59 57 55 53 52 51 52 51 47 45 44 45 46 44 42 42 44 49 50 45 48 53 50 46 44 42 30 21 23 24 25
70 74 76 78 79 84 84 81 78 67 58 55 55 55 53 52 53 56 57 57 57 56 58 63 65 61 60 62 65 65 64 65 66 67 67 69 71 69 72 74 72 71 69 69 71 72 72 73 73 72 74 74 74 72 70 69 68 67 66 66 65 64 62 61 60 60 60 58 57 56 55 54 55 55 52 51 51 50 49 48 46 46 45 52 55 44 45 51 50 47 45 41 28 21 23 25 26
67 72 76 78 79 83 84 82 78 67 61 59 57 54 54 55 55 55 54 54 58 59 58 59 61 62 63 63 64 66 69 70 68 68 70 69 71 72 74 74 72 73 72 70 71 71 70 71 72 71 73 74 72 71 69 68 69 68 67 66 65 65 65 64 63 60 59 59 58 57 56 55 56 57 56 55 55 54 53 50 48 48 45 51 56 46 42 47 49 48 45 40 26 21 23 24 27
66 70 74 79 83 85 83 82 78 70 66 61 56 54 55 56 55 54 54 57 59 58 57 56 59 61 62 62 65 69 71 72 70 70 72 71 72 75 74 73 72 73 74 72 72 70 70 70 71 71 71 71 69 68 68 68 69 68 68 66 65 65 65 64 64 61 58 59 58 57 57 57 57 57 57 56 55 55 53 50 46 45 44 49 54 48 40 43 49 48 45 39 25 21 23 25 27
67 72 72 76 82 84 82 79 78 75 67 57 54 55 55 53 53 56 57 60 56 51 54 56 59 62 61 63 65 68 70 72 72 71 73 71 73 75 73 75 73 71 72 73 73 70 69 69 70 69 68 67 65 65 66 67 69 69 68 66 65 64 64 64 62 60 59 59 57 58 58 58 59 58 58 56 55 54 51 50 46 43 43 49 54 47 38 42 47 47 45 37 23 21 23 26 27
66 71 75 79 81 79 79 77 78 80 67 56 54 52 53 52 53 56 56 56 51 49 54 52 54 58 59 63 63 64 66 70 72 70 71 72 73 75 75 77 74 71 72 72 72 70 68 68 68 67 65 65 64 64 64 64 66 68 67 66 66 64 64 65 63 60 59 58 56 56 57 58 58 58 58 57 56 54 52 51 47 46 45 50 55 46 38 41 47 47 45 35 22 21 23 26 28
69 71 73 78 80 78 77 76 80 81 68 57 55 53 52 52 53 53 53 53 50 52 55 51 53 56 53 57 59 60 63 65 69 70 70 71 72 74 75 74 73 73 73 72 71 70 69 68 66 65 64 64 64 63 63 62 63 66 66 65 66 64 63 64 61 60 58 58 56 55 55 56 56 56 56 57 56 53 53 51 48 48 48 52 53 44 38 41 45 46 44 32 20 20 23 25 28
67 72 74 76 76 77 77 76 78 76 67 60 58 57 52 52 52 51 54 55 51 52 53 53 58 58 51 52 53 55 59 61 65 69 70 70 70 72 72 70 71 73 73 72 73 70 69 69 66 66 65 65 64 63 63 63 63 65 65 65 65 64 63 62 60 60 59 58 56 55 54 55 55 55 56 56 55 53 52 50 49 48 50 56 51 40 38 41 43 45 42 29 19 21 24 27 28
64 67 72 74 72 74 75 75 77 74 69 62 60 59 53 52 53 52 59 57 51 49 51 56 59 57 50 47 49 51 57 58 61 66 68 69 68 69 70 67 67 71 70 71 74 73 71 70 67 66 66 66 67 66 65 65 65 66 68 68 66 64 63 63 62 61 60 58 58 57 56 56 55 55 55 55 54 53 50 48 49 48 51 56 48 38 39 41 41 44 39 24 18 21 26 35 39
62 62 66 67 67 71 73 75 77 74 72 66 62 61 57 54 53 57 62 58 57 54 51 56 56 54 49 45 47 50 55 54 55 61 63 65 65 65 67 67 65 67 68 68 73 74 72 72 69 67 67 67 69 70 70 69 67 67 68 68 65 63 63 63 62 61 60 59 59 59 59 58 55 55 55 55 54 53 50 49 49 47 51 54 44 37 39 40 41 43 35 22 18 22 32 45 54
62 59 64 65 67 70 69 72 71 71 72 68 62 62 62 55 54 61 62 59 61 59 52 55 55 51 46 46 48 49 52 51 50 56 59 61 63 63 66 67 66 66 66 67 70 72 72 72 70 68 67 66 68 70 72 69 66 67 68 65 63 62 63 63 63 62 60 59 59 58 58 57 56 56 56 56 56 53 50 49 49 47 51 53 42 37 40 40 41 41 31 19 19 25 36 47 58
60 60 65 65 66 67 67 69 69 70 71 69 62 63 65 58 56 61 61 60 61 58 55 56 54 48 44 45 48 46 48 49 48 51 54 60 63 64 64 65 67 67 67 66 67 70 71 71 69 67 66 65 65 66 67 66 65 67 68 66 63 62 65 64 64 63 61 60 60 58 57 57 58 58 58 58 57 54 51 49 49 49 53 54 46 44 47 43 41 38 27 20 23 33 40 47 58
61 61 64 65 66 66 66 66 67 69 72 72 66 64 64 58 60 63 61 60 57 54 56 58 53 47 44 44 46 44 45 48 49 50 52 58 62 62 64 67 67 67 68 67 66 68 70 69 66 64 64 63 64 63 64 65 65 66 66 67 65 63 64 64 64 64 62 62 61 60 58 59 59 59 58 58 57 56 54 52 53 55 57 56 55 57 54 46 44 40 30 25 30 40 41 43 52
62 60 62 64 64 65 67 65 64 69 72 71 67 68 68 62 62 64 62 58 53 53 55 58 54 47 44 43 45 44 43 47 49 51 54 58 62 62 63 67 68 67 68 68 67 66 67 69 67 63 62 62 62 63 64 65 65 64 63 65 65 64 63 62 63 62 62 62 62 61 58 57 59 58 57 56 55 56 58 59 58 58 57 59 63 65 56 45 44 41 33 28 32 42 43 43 49
64 62 64 65 63 64 68 66 65 69 72 70 68 70 71 68 64 62 63 58 52 51 52 55 53 48 45 45 47 46 44 48 50 51 54 58 61 60 61 64 66 67 67 68 68 67 66 67 66 62 61 61 61 61 63 63 63 62 62 63 64 63 63 63 63 61 60 60 60 58 55 56 57 57 57 57 56 55 59 62 62 57 56 63 68 66 59 49 44 38 30 28 31 41 48 48 50
66 64 66 66 65 65 66 67 66 69 73 73 71 69 69 68 65 64 65 60 51 48 50 53 52 49 48 48 50 48 48 52 53 51 53 56 57 57 60 61 64 66 65 67 68 67 66 65 64 62 62 62 60 60 61 61 63 63 61 62 63 62 63 64 63 61 59 57 57 55 54 56 57 57 57 58 57 55 59 64 65 64 64 71 71 64 60 49 42 35 26 26 30 41 55 52 51
66 64 65 65 65 67 65 66 68 72 76 75 70 69 68 65 68 70 64 59 53 48 50 52 50 50 50 51 52 50 50 53 53 52 51 52 53 55 59 60 64 65 62 64 65 64 66 67 66 64 64 63 59 60 62 61 61 61 60 59 60 61 63 63 63 60 57 55 55 54 54 57 58 58 59 59 59 56 58 64 65 69 73 73 70 63 55 45 39 32 23 27 32 41 54 49 50
64 61 62 64 64 65 63 64 67 70 71 71 69 67 65 63 68 70 63 60 56 51 50 50 50 50 52 53 52 51 52 54 55 55 53 51 49 51 55 58 63 63 60 61 62 62 65 67 66 65 66 63 59 60 61 59 58 59 59 59 59 60 61 61 61 59 57 56 55 54 54 56 58 60 62 61 62 60 59 64 64 68 73 69 66 60 48 42 36 29 25 31 35 39 45 43 51
58 56 60 63 62 64 62 61 64 65 65 67 67 64 62 60 62 63 61 61 59 56 52 49 50 49 51 55 52 50 54 55 54 55 56 54 49 49 52 54 57 57 57 60 62 62 64 65 65 66 67 64 61 59 58 58 56 56 57 57 58 59 60 59 58 58 58 58 56 56 55 55 58 60 63 61 63 64 62 64 65 72 75 61 56 54 44 39 36 31 29 34 34 35 41 46 57
54 57 61 63 65 68 64 59 59 61 64 64 63 64 62 59 57 58 60 60 60 61 57 50 51 50 49 53 52 50 52 53 52 53 56 54 48 49 53 54 54 55 55 57 61 63 63 63 65 66 66 63 62 59 57 57 54 54 54 54 58 57 58 56 55 58 59 59 56 57 57 56 57 58 63 61 59 61 61 63 62 66 69 54 47 48 41 36 35 33 29 29 29 33 46 53 59
59 61 62 63 66 67 64 61 60 63 65 63 62 65 65 61 58 57 60 62 62 65 63 56 50 49 50 51 51 51 50 50 51 51 52 52 47 50 56 55 54 54 51 52 54 57 58 59 61 62 61 59 59 57 56 55 53 53 51 52 55 54 55 56 57 61 61 58 57 58 57 55 54 56 60 57 56 59 57 63 62 56 55 48 43 42 36 32 33 30 25 27 29 36 52 53 55
60 61 63 63 63 63 62 60 62 65 64 62 64 68 65 63 61 59 60 62 64 65 67 62 52 50 52 51 50 52 51 49 50 51 49 49 46 49 55 53 52 52 49 48 48 50 53 55 56 57 57 55 55 54 54 54 54 55 50 50 53 52 55 57 59 64 61 59 62 59 55 53 52 54 56 53 54 57 54 57 60 53 47 44 40 35 34 33 34 29 24 32 36 42 54 52 52
60 58 60 61 60 62 61 58 59 62 62 63 66 68 66 64 62 61 62 63 65 66 68 66 58 51 52 53 51 51 54 52 51 53 50 47 44 45 52 51 48 50 48 46 47 48 50 52 53 53 54 54 50 50 51 51 53 53 49 50 52 51 55 57 60 65 61 61 64 58 53 52 51 52 54 53 52 57 56 51 51 50 43 40 37 33 35 34 35 33 29 36 41 44 54 55 55
55 53 55 58 57 57 59 58 57 58 60 62 63 64 66 65 61 61 64 64 65 66 68 68 63 55 52 53 52 51 54 54 53 55 50 46 46 44 48 49 46 47 46 45 45 46 47 50 51 51 53 53 50 47 47 47 50 50 47 48 49 49 53 57 60 63 62 60 62 57 51 50 51 52 53 52 52 57 59 49 45 45 39 38 36 33 37 35 34 37 34 39 44 45 52 58 61
48 47 48 52 54 53 57 57 53 52 56 58 59 61 63 62 60 60 63 65 64 65 69 69 67 62 56 52 52 52 53 54 53 55 53 48 48 46 46 47 45 46 46 46 44 43 46 47 48 50 51 52 51 47 46 48 50 50 48 48 48 48 51 56 59 61 62 60 61 59 53 50 50 52 52 50 52 56 55 51 46 40 36 38 34 31 37 36 33 37 34 36 42 45 53 59 62
43 44 44 48 52 51 54 53 47 47 51 54 56 57 59 59 60 60 62 65 66 66 68 69 68 67 62 53 50 51 52 53 51 54 56 52 50 48 48 45 42 44 44 44 43 42 46 47 46 49 50 50 51 48 46 50 54 53 53 52 49 48 51 56 58 60 62 61 61 59 53 52 51 52 52 48 50 55 55 54 49 39 36 38 33 31 37 36 35 38 34 34 35 38 48 54 56
41 44 43 45 51 51 52 52 48 46 49 53 53 54 57 59 60 60 59 62 67 70 69 70 72 70 68 59 51 49 50 52 51 53 57 55 51 48 48 44 41 43 42 41 41 40 44 47 46 48 48 48 50 49 46 50 56 56 55 55 52 49 51 56 59 62 67 65 63 60 54 52 52 51 51 48 47 51 53 53 50 42 38 38 34 33 37 36 36 39 39 37 33 31 38 48 55
39 39 38 43 52 51 49 50 47 45 46 48 51 53 56 57 56 57 57 58 62 68 69 70 72 71 71 68 58 51 50 52 51 51 55 56 52 48 47 44 42 43 42 40 40 40 42 44 45 47 46 47 50 48 46 49 55 55 54 56 55 52 51 56 59 61 68 68 64 62 56 52 52 51 50 47 45 48 51 51 50 44 40 39 36 35 37 37 36 39 40 37 34 31 34 47 57
34 34 37 43 50 46 45 47 44 42 42 45 49 49 51 55 56 56 57 57 57 61 65 68 71 71 71 70 64 56 50 52 52 51 54 55 52 49 45 43 43 44 43 43 42 41 42 42 43 45 45 46 50 49 46 48 53 53 53 54 55 54 51 53 56 58 63 65 63 60 56 53 52 51 49 46 44 45 50 51 49 45 41 40 38 35 37 38 37 36 37 35 34 34 34 41 51
29 30 37 44 45 42 45 46 42 40 39 42 45 42 45 53 57 56 57 59 57 56 61 65 69 73 72 70 70 65 57 54 54 53 52 53 52 48 43 43 44 45 44 45 44 42 43 43 42 43 45 46 49 50 45 46 51 51 50 52 53 55 53 50 52 55 57 60 62 60 56 53 50 50 49 47 46 46 49 50 47 45 42 41 39 36 37 41 40 34 33 36 36 36 36 40 50
28 29 35 42 44 44 43 40 38 39 39 40 43 42 45 51 54 55 56 58 57 55 59 63 67 73 74 72 71 69 64 57 56 55 53 54 52 47 43 43 43 44 44 44 44 43 43 44 45 45 45 46 49 49 43 44 49 49 49 51 51 53 55 51 50 53 54 56 60 61 57 50 46 50 49 48 50 49 48 49 47 46 44 44 41 38 38 41 40 31 29 34 35 34 38 45 52
30 34 36 38 41 43 39 36 35 37 41 43 44 45 49 51 53 55 54 55 56 55 56 60 65 70 73 73 70 69 67 60 58 59 57 58 57 52 45 43 44 44 44 44 43 42 43 44 47 46 45 46 48 48 43 43 48 49 49 51 51 51 53 54 52 53 54 54 58 61 60 52 45 49 52 49 51 51 48 48 48 49 48 47 45 41 38 37 36 32 29 31 33 34 36 41 45
31 37 36 36 39 39 35 33 32 32 39 44 43 43 48 49 51 55 54 53 54 53 55 59 62 65 68 69 69 69 68 64 63 63 61 61 61 57 50 44 44 44 45 46 44 44 45 45 47 47 45 44 46 47 44 42 46 48 48 49 51 51 54 57 55 54 56 56 57 59 61 58 50 48 51 52 52 52 51 46 45 49 50 49 48 44 40 36 33 33 31 31 32 33 34 36 37
28 35 35 35 38 36 33 32 31 30 36 41 39 38 42 45 47 52 52 52 55 54 55 57 56 56 59 63 67 68 68 67 66 66 64 62 61 61 58 52 49 49 51 53 50 47 46 46 48 48 46 45 46 48 45 42 44 45 46 47 50 51 52 55 54 53 54 55 57 57 57 60 57 51 50 52 52 53 53 46 42 46 49 50 49 46 45 43 38 33 31 31 31 30 30 33 34
24 30 33 32 32 32 32 32 32 32 36 39 37 37 41 44 44 47 50 52 56 56 55 55 54 53 54 57 64 66 66 67 64 65 66 65 64 64 64 61 59 59 61 62 61 58 53 51 50 49 48 47 47 48 47 43 42 41 41 43 46 48 48 50 51 51 50 51 55 55 52 56 58 56 53 52 53 53 53 47 42 42 45 49 50 48 48 48 45 38 32 30 30 28 29 31 33
28 28 30 29 27 28 30 32 34 35 36 37 36 38 44 48 44 44 48 50 52 52 52 51 51 53 51 51 58 63 66 67 64 65 66 66 67 66 65 66 66 68 66 65 67 67 63 59 55 53 50 48 49 49 47 45 43 41 40 40 44 47 46 47 49 51 49 48 51 51 49 52 55 55 55 54 53 53 50 48 46 43 41 45 50 51 51 49 49 45 37 32 31 31 31 32 32
26 25 26 28 27 26 28 33 34 34 36 36 35 37 41 44 43 41 43 46 46 46 50 51 49 50 49 46 51 58 63 65 64 64 65 64 65 66 66 67 69 71 69 66 67 67 65 62 59 57 52 48 50 50 47 46 45 43 42 42 46 48 48 47 48 50 49 49 51 50 49 51 53 54 54 53 53 53 51 48 47 47 44 44 47 51 52 52 52 50 44 38 36 35 34 33 33
17 19 21 25 27 28 31 35 35 34 37 37 34 36 37 39 39 39 39 38 37 41 46 49 48 47 47 45 47 52 55 58 61 60 61 62 63 65 67 68 69 69 67 66 67 65 63 62 61 59 53 50 53 52 47 45 44 44 43 44 46 48 48 46 46 49 48 48 52 52 50 51 52 54 54 53 53 53 53 50 47 49 49 47 48 50 51 52 53 52 50 44 38 36 36 35 36
15 16 18 23 30 34 36 38 41 40 39 37 36 39 39 38 37 35 35 35 38 41 43 46 48 47 47 46 45 48 50 53 56 55 57 59 61 62 63 64 67 66 65 65 67 65 62 61 60 59 54 52 56 55 49 47 45 44 44 43 44 44 44 45 46 48 48 47 50 52 52 53 53 53 55 56 55 54 53 52 49 49 50 51 53 52 51 51 52 52 52 47 41 39 41 40 38
17 16 18 24 33 39 39 40 42 41 38 36 37 38 37 36 36 33 32 35 39 41 41 44 47 46 47 45 43 44 47 53 55 55 56 57 57 59 61 64 66 66 66 66 66 66 64 61 59 58 53 51 55 57 54 51 50 50 50 48 46 45 44 46 49 50 50 50 51 53 54 55 56 56 56 58 59 57 55 54 53 51 49 51 54 53 53 53 54 53 51 48 45 43 43 44 44
25 21 20 27 33 37 40 40 40 38 35 35 36 36 36 36 36 33 29 32 36 38 40 42 43 44 46 46 43 42 45 53 56 55 57 58 56 56 59 63 65 64 67 67 65 65 65 63 63 62 55 51 54 56 56 56 55 56 56 54 53 51 49 51 52 53 54 54 55 56 55 55 55 57 58 60 61 60 59 57 56 55 52 50 51 52 53 55 56 56 53 50 48 44 43 45 47
29 26 25 28 30 31 35 36 36 35 35 39 41 37 36 36 34 31 28 30 32 35 41 45 44 42 44 46 45 44 44 49 52 53 55 56 55 56 56 57 60 63 66 65 62 63 64 63 64 64 60 55 54 56 55 57 57 57 58 58 58 57 55 54 54 55 57 57 57 58 58 55 54 55 57 60 62 63 62 61 58 57 55 53 52 51 51 53 57 57 55 54 49 45 47 49 49
26 30 29 28 26 27 32 33 32 32 32 37 39 34 33 33 31 29 30 30 32 36 39 45 47 45 43 44 46 46 45 44 48 51 52 51 54 56 54 54 59 64 65 63 62 61 62 62 61 62 62 60 57 57 57 57 59 60 60 59 59 59 59 58 57 58 60 62 61 60 59 56 54 54 55 57 61 63 63 63 61 58 57 57 55 53 50 51 54 54 54 55 52 48 50 52 50
22 30 30 29 28 29 32 34 33 34 33 34 33 31 34 34 30 29 30 30 36 43 42 41 47 48 45 45 45 46 44 44 48 50 51 51 50 51 54 55 59 63 64 64 64 62 60 60 60 61 64 63 60 59 59 59 59 60 60 59 57 57 59 60 61 62 62 64 65 64 62 60 55 53 53 56 59 61 64 65 63 60 57 57 57 56 53 51 51 51 52 55 54 51 49 48 47
15 25 30 30 31 31 30 30 33 36 37 35 33 31 32 32 29 28 29 31 36 42 42 43 46 46 44 43 44 45 45 43 46 50 51 53 52 51 55 57 57 59 61 62 63 62 60 59 60 62 63 62 60 61 61 62 61 62 62 62 61 61 61 62 63 63 63 64 66 67 66 64 59 55 54 54 54 58 63 65 65 63 59 56 57 58 56 53 50 49 52 54 55 55 52 48 47
11 16 26 30 30 32 32 30 30 32 33 33 32 31 29 28 28 25 27 32 34 36 39 42 44 46 48 46 43 44 45 44 46 50 51 53 53 52 53 56 57 57 57 57 58 60 60 58 58 60 60 59 58 58 60 61 62 63 64 65 64 65 65 65 65 65 65 67 68 69 68 67 65 62 57 53 51 55 61 64 64 66 63 58 57 57 56 54 51 49 51 54 54 54 55 54 52
15 12 20 28 30 30 32 34 31 29 30 32 34 36 33 27 27 29 31 35 34 35 38 39 41 47 53 54 50 46 46 46 46 48 49 49 50 51 51 53 55 54 53 53 53 55 58 56 55 57 58 56 55 56 57 59 60 62 62 61 61 62 64 64 65 66 66 68 70 70 69 69 67 66 64 59 54 55 60 62 62 64 65 63 60 57 55 56 55 52 52 54 53 53 55 58 59
22 16 15 23 30 30 31 36 35 31 32 33 33 35 35 29 28 31 34 37 37 37 39 40 42 45 47 53 55 50 49 50 46 45 47 48 48 53 54 51 49 50 52 52 50 49 52 53 54 57 57 55 54 56 58 59 61 61 60 58 57 58 59 62 65 66 65 68 71 70 70 70 68 66 67 66 62 60 60 61 61 63 65 66 65 60 56 56 57 57 57 56 56 55 55 56 59